TimePST,TemperatureF,Dew PointF,Humidity,Sea Level PressureIn,VisibilityMPH,Wind Direction,Wind SpeedMPH,Gust SpeedMPH,PrecipitationIn,Events,Conditions,WindDirDegrees,DateUTC
12:00 AM,35.6,28.4,75,30.13,15.0,East,3.5,-,N/A,,Overcast,90,2014-02-02 08:00:00
1:00 AM,35.6,30.2,81,30.12,15.0,Calm,Calm,-,N/A,,Overcast,0,2014-02-02 09:00:00
2:00 AM,35.6,28.4,75,30.12,15.0,Variable,2.3,-,N/A,,Overcast,0,2014-02-02 10:00:00
3:00 AM,35.6,30.2,81,30.11,15.0,Calm,Calm,-,N/A,,Overcast,0,2014-02-02 11:00:00
4:00 AM,35,30,75,30.09,15,ESE,2.3,,,,Overcast,120,2014-02-02 12:00:00
4:00 AM,35.6,30.2,81,30.09,15.0,ESE,2.3,-,N/A,,Overcast,110,2014-02-02 12:00:00
5:00 AM,33.8,30.2,87,30.08,15.0,East,2.3,-,N/A,,Overcast,100,2014-02-02 13:00:00
6:00 AM,33.8,32.0,93,30.07,15.0,Variable,2.3,-,N/A,,Overcast,0,2014-02-02 14:00:00
7:00 AM,33.8,30.2,87,30.07,15.0,Calm,Calm,-,N/A,,Overcast,0,2014-02-02 15:00:00
8:00 AM,33.8,30.2,87,30.06,15.0,SE,5.8,-,N/A,,Overcast,130,2014-02-02 16:00:00
9:00 AM,35.6,32.0,87,30.06,15.0,SE,4.6,-,N/A,,Mostly Cloudy,130,2014-02-02 17:00:00
10:00 AM,36,31,76,30.06,15,East,3.5,,,,Scattered Clouds,100,2014-02-02 18:00:00
10:00 AM,35.6,32.0,87,30.06,15.0,East,3.5,-,N/A,,Mostly Cloudy,100,2014-02-02 18:00:00
11:00 AM,37.4,30.2,75,30.06,15.0,ESE,5.8,-,N/A,,Mostly Cloudy,110,2014-02-02 19:00:00
12:00 PM,39.2,30.2,70,30.04,20.0,SW,2.3,-,N/A,,Mostly Cloudy,230,2014-02-02 20:00:00
1:00 PM,39.2,32.0,75,30.03,20.0,WSW,6.9,-,N/A,,Mostly Cloudy,240,2014-02-02 21:00:00
2:00 PM,41.0,24.8,53,30.02,15.0,NW,9.2,-,N/A,,Mostly Cloudy,310,2014-02-02 22:00:00
3:00 PM,42.8,26.6,53,30.01,20.0,WNW,10.4,-,N/A,,Mostly Cloudy,290,2014-02-02 23:00:00
4:00 PM,40,30,58,30.01,19,WNW,10.4,,,,Scattered Clouds,290,2014-02-03 00:00:00
4:00 PM,41.0,30.2,65,30.01,20.0,WNW,11.5,-,N/A,,Scattered Clouds,290,2014-02-03 00:00:00
5:00 PM,39.2,33.8,81,30.02,20.0,WNW,15.0,-,N/A,,Scattered Clouds,300,2014-02-03 01:00:00
6:00 PM,35.6,30.2,81,30.01,20.0,NW,4.6,-,N/A,,Scattered Clouds,310,2014-02-03 02:00:00
7:00 PM,35.6,30.2,81,30.02,20.0,ENE,8.1,-,N/A,,Scattered Clouds,70,2014-02-03 03:00:00
8:00 PM,33.8,26.6,75,30.02,20.0,East,9.2,-,N/A,,Mostly Cloudy,100,2014-02-03 04:00:00
9:00 PM,32.0,21.2,64,30.02,15.0,East,9.2,-,N/A,,Partly Cloudy,100,2014-02-03 05:00:00
10:00 PM,30,21,58,30.04,15,East,6.9,,,,,100,2014-02-03 06:00:00
10:00 PM,30.2,21.2,69,30.04,15.0,East,5.8,-,N/A,,Clear,100,2014-02-03 06:00:00
11:00 PM,32.0,21.2,64,30.06,15.0,East,5.8,-,N/A,,Mostly Cloudy,80,2014-02-03 07:00:00